Regional Weather Roundup
Issued by NWS Upton, NY

Current Version | Previous Version | Graphics & Text | Print | Product List | Glossary Off
Versions: 1 2 3 4 5 6 7 8 9 10 11 12 13 14 15 16 17 18 19 20 21 22 23 24 25 26 27 28

000
ASUS41 KOKX 190708
RWROKX

REGIONAL WEATHER ROUNDUP
NATIONAL WEATHER SERVICE NEW YORK NY
200 AM EST SUN FEB 19 2017

NOTE: "FAIR" INDICATES FEW OR NO CLOUDS BELOW 12,000 FEET WITH NO
SIGNIFICANT WEATHER AND/OR OBSTRUCTIONS TO VISIBILITY.

NYZ071-072-176-178-NJZ106-104-190800-
NEW YORK CITY METRO AREA

CITY           SKY/WX    TMP DP  RH WIND       PRES   REMARKS
Central Park   CLOUDY    59  31  34 W7        29.70R
Wall St Helipt NOT AVBL
LaGuardia APRT PTCLDY    59  32  36 SW12      29.67R
Kennedy INTL   MOCLDY    52  35  52 W14       29.69S
Breezy Point     N/A     46 N/A N/A W10G18      N/A
Newark/Liberty MOCLDY    49  33  54 SW8       29.69R
Teterboro      CLOUDY    57  33  40 W10       29.67R
$$

NYZ177-179-078>081-190800-
LONG ISLAND NEW YORK

CITY           SKY/WX    TMP DP  RH WIND       PRES   REMARKS
Jones Beach      N/A     45 N/A N/A SW8         N/A
Matinecock PT  NOT AVBL
Farmingdale    MOCLDY    48  34  58 W5        29.68R
MacArthur/ISP  PTCLDY    45  35  68 W6        29.67R
Shirley        MOCLDY    47  35  63 W6        29.68R
Westhampton    CLOUDY    44  34  67 SW8       29.67R
Southampton    NOT AVBL
Bridgehampton  NOT AVBL
East Hampton     N/A     45  34  66 SW3       29.63S
Montauk          N/A     47  36  65 SW7       29.64R
$$

NYZ052-065-067-190800-
HUDSON VALLEY

CITY           SKY/WX    TMP DP  RH WIND       PRES   REMARKS
White Plains   CLOUDY    52  30  43 W7        29.66R
Newburgh       PTCLDY    43  34  70 W5        29.68R
Montgomery     CLOUDY    34  29  82 CALM      29.67R
Poughkeepsie   CLOUDY    47  31  53 SW12      29.65R
Albany         PTCLDY    45  33  63 W8        29.66R
$$

NJZ001-105-106-008-010-013-015-019>022-104-190800-
NEW JERSEY

CITY           SKY/WX    TMP DP  RH WIND       PRES   REMARKS
Newark/Liberty MOCLDY    49  33  54 SW8       29.69R
Teterboro      CLOUDY    57  33  40 W10       29.67R
Caldwell       CLOUDY    49  32  52 SW3       29.69R
Somerville     MOCLDY    36  30  79 CALM      29.69S
Linden         NOT AVBL
Sussex         CLOUDY    35  31  85 CALM      29.69R
Andover          N/A     38  31  76 S3        29.70R
Trenton        CLOUDY    54  33  45 W6        29.73R
Millville      CLOUDY    59  36  42 SW9       29.75F
Atlantic City  NOT AVBL
Wrightstown    CLOUDY    56  35  46 W9        29.72R
Toms River     CLOUDY    56  35  45 SW9       29.75R
Belmar         PTCLDY    54  35  48 SW9       29.73R
$$

PAZ047>061-062-071-190800-
EASTERN PENNSYLVANIA

CITY           SKY/WX    TMP DP  RH WIND       PRES   REMARKS
Philadelphia   CLOUDY    50  37  61 W5        29.76R
Allentown      CLOUDY    49  31  49 SW6       29.72S
Scranton       CLOUDY    52  34  50 SW8       29.72R
$$

CTZ002-004>006-009-010-012-RIZ004-006-007-MAZ004-011-015-190800-
SOUTHERN NEW ENGLAND
 IN CT

CITY           SKY/WX    TMP DP  RH WIND       PRES   REMARKS
Bradley INTL   CLOUDY    37  31  78 SW7       29.61R WCI  32
Hartford       CLOUDY    37  31  78 CALM      29.62R
Danbury        CLOUDY    40  30  67 W9        29.65S WCI  34
Wtrbury/Oxford CLOUDY    52  30  43 W5        29.64S
Bridgeport     CLOUDY    48  33  56 W8        29.64R
Meriden        CLOUDY    31  27  85 S3        29.63R
New Haven      CLOUDY    45  32  60 CALM      29.63R
Chester          N/A     50  32  50 SW7       29.62R
Groton         PTCLDY    41  35  79 SW9       29.62R
Wilimantic     PTCLDY    37  31  78 CALM      29.61R

 IN RI

CITY           SKY/WX    TMP DP  RH WIND       PRES   REMARKS
Providence     CLEAR     39  32  76 S9        29.60R WCI  33
Block Island   CLOUDY    42  38  85 SW13      29.64R
Westerly       CLOUDY    46  33  60 SW7       29.63R
 IN MA

CITY           SKY/WX    TMP DP  RH WIND       PRES   REMARKS
Boston         PTCLDY    49  33  54 SW12      29.54R
Worcester      CLEAR     49  30  48 W21G30    29.54S
Westfield      CLEAR     30  28  92 CALM      29.60R
Provincetown   CLEAR     42  36  79 SW14      29.56S
Nantucket      CLOUDY    45  38  76 W16       29.62R
$$

ANZ330-335-338-340-345-350-353-355-190800-
COASTAL MARINE OBSERVATIONS


STATION/POSITION TIME  SKY/WX   TEMP    WIND        PRES    VSBY  WAVE
                                AIR SEA DIR/SP/G                  HT/PER
                 (UTC)          (F)     (DEG/KT/KT) (MB)    (MI)  (FT/S)
NY HARB ENTRANCE 0650            47 42  230/ 12/ 14 1005.1          2/ 5
20 S FIRE ISLAND 0650            47 40  240/ 14/ 16 1005.0          3/ 5
GREAT SOUTH BAY  NOT AVBL
23 SSW MONTAUK P 0550            49 44              1003.8          4/ 5
15 E BARNEGAT LI 0630               42                N/A           3/ 5
HUDSON CANYON    0550               51              1005.9          4/ 5
KINGS POINT      0648            54 37              1004.7
EXECUTION ROCKS  NOT AVBL
CENTRAL LI SOUND 0630            42     270/  8/ 10   N/A           1/ 3
EASTERN LI SOUND NOT AVBL
ROBBINS REEF     0648            54     250/ 16/ 17 1005.3
$$


>>>>>>>>>>>>>>>>>>>>>>>>>>>> KEY <<<<<<<<<<<<<<<<<<<<<<<<<<<
>                                                          <
>     SKY/WX - Sky Condition/Present Weather               <
>     TMP    - Temperature in Fahrenheit                   <
>     DP     - Dew Point in Fahrenheit                     <
>     RH     - Relative Humidity in Percent                <
>     WIND   - Direction (from) and Speed in MPH           <
>     PRES   - Mean Sea Level Pressure (inches of Hg)      <
>     WCI    - Wind Chill Index                            <
>     VSB    - VISIBILITY IN MILES                         <
>     HX     - HEAT INDEX                                  <
>     TC     - TEMPERATURE IN CELSIUS                      <
>     VRB    - VARIABLE WIND DIRECTION                     <
>                                                          <
>>>>>>>>>>>>>>>>>>>>>>>>>>>> KEY <<<<<<<<<<<<<<<<<<<<<<<<<<<




USA.gov is the U.S. government's official web portal to all federal, state and local government web resources and services.